datetime,flow
1973-10-01,26.0
1973-10-02,26.0
1973-10-03,26.0
1973-10-04,26.0
1973-10-05,26.0
1973-10-06,26.0
1973-10-07,27.0
1973-10-08,27.0
1973-10-09,26.0
1973-10-10,25.0
1973-10-11,26.0
1973-10-12,25.0
1973-10-13,25.0
1973-10-14,26.0
1973-10-15,26.0
1973-10-16,25.0
1973-10-17,25.0
1973-10-18,25.0
1973-10-19,28.0
1973-10-20,31.0
1973-10-21,34.0
1973-10-22,39.0
1973-10-23,34.0
1973-10-24,31.0
1973-10-25,29.0
1973-10-26,28.0
1973-10-27,28.0
1973-10-28,29.0
1973-10-29,30.0
1973-10-30,30.0
1973-10-31,30.0
1973-11-01,31.0
1973-11-02,31.0
1973-11-03,32.0
1973-11-04,33.0
1973-11-05,36.0
1973-11-06,49.0
1973-11-07,49.0
1973-11-08,105.0
1973-11-09,132.0
1973-11-10,158.0
1973-11-11,384.0
1973-11-12,926.0
1973-11-13,1060.0
1973-11-14,632.0
1973-11-15,432.0
1973-11-16,428.0
1973-11-17,458.0
1973-11-18,396.0
1973-11-19,279.0
1973-11-20,238.0
1973-11-21,182.0
1973-11-22,154.0
1973-11-23,136.0
1973-11-24,125.0
1973-11-25,116.0
1973-11-26,105.0
1973-11-27,93.0
1973-11-28,101.0
1973-11-29,164.0
1973-11-30,573.0
1973-12-01,834.0
1973-12-02,488.0
1973-12-03,406.0
1973-12-04,326.0
1973-12-05,272.0
1973-12-06,241.0
1973-12-07,505.0
1973-12-08,658.0
1973-12-09,512.0
1973-12-10,351.0
1973-12-11,302.0
1973-12-12,238.0
1973-12-13,172.0
1973-12-14,150.0
1973-12-15,154.0
1973-12-16,191.0
1973-12-17,400.0
1973-12-18,572.0
1973-12-19,404.0
1973-12-20,343.0
1973-12-21,295.0
1973-12-22,231.0
1973-12-23,228.0
1973-12-24,215.0
1973-12-25,218.0
1973-12-26,194.0
1973-12-27,210.0
1973-12-28,238.0
1973-12-29,268.0
1973-12-30,265.0
1973-12-31,170.0
1974-01-01,100.0
1974-01-02,70.0
1974-01-03,53.0
1974-01-04,53.0
1974-01-05,53.0
1974-01-06,53.0
1974-01-07,53.0
1974-01-08,53.0
1974-01-09,53.0
1974-01-10,53.0
1974-01-11,56.0
1974-01-12,59.0
1974-01-13,66.0
1974-01-14,87.0
1974-01-15,523.0
1974-01-16,2290.0
1974-01-17,3100.0
1974-01-18,1900.0
1974-01-19,2200.0
1974-01-20,1500.0
1974-01-21,795.0
1974-01-22,792.0
1974-01-23,777.0
1974-01-24,628.0
1974-01-25,550.0
1974-01-26,500.0
1974-01-27,430.0
1974-01-28,370.0
1974-01-29,330.0
1974-01-30,300.0
1974-01-31,270.0
1974-02-01,260.0
1974-02-02,250.0
1974-02-03,250.0
1974-02-04,250.0
1974-02-05,250.0
1974-02-06,230.0
1974-02-07,210.0
1974-02-08,220.0
1974-02-09,229.0
1974-02-10,233.0
1974-02-11,231.0
1974-02-12,234.0
1974-02-13,224.0
1974-02-14,245.0
1974-02-15,235.0
1974-02-16,225.0
1974-02-17,220.0
1974-02-18,200.0
1974-02-19,180.0
1974-02-20,160.0
1974-02-21,140.0
1974-02-22,130.0
1974-02-23,125.0
1974-02-24,125.0
1974-02-25,140.0
1974-02-26,160.0
1974-02-27,190.0
1974-02-28,170.0
1974-03-01,200.0
1974-03-02,230.0
1974-03-03,180.0
1974-03-04,160.0
1974-03-05,160.0
1974-03-06,225.0
1974-03-07,180.0
1974-03-08,131.0
1974-03-09,130.0
1974-03-10,137.0
1974-03-11,136.0
1974-03-12,150.0
1974-03-13,150.0
1974-03-14,199.0
1974-03-15,267.0
1974-03-16,353.0
1974-03-17,855.0
1974-03-18,1960.0
1974-03-19,2170.0
1974-03-20,1660.0
1974-03-21,1290.0
1974-03-22,1150.0
1974-03-23,1030.0
1974-03-24,950.0
1974-03-25,912.0
1974-03-26,870.0
1974-03-27,852.0
1974-03-28,825.0
1974-03-29,864.0
1974-03-30,2430.0
1974-03-31,2440.0
1974-04-01,1720.0
1974-04-02,1530.0
1974-04-03,1460.0
1974-04-04,1280.0
1974-04-05,1360.0
1974-04-06,1340.0
1974-04-07,1120.0
1974-04-08,975.0
1974-04-09,831.0
1974-04-10,735.0
1974-04-11,690.0
1974-04-12,663.0
1974-04-13,648.0
1974-04-14,628.0
1974-04-15,622.0
1974-04-16,625.0
1974-04-17,630.0
1974-04-18,642.0
1974-04-19,672.0
1974-04-20,663.0
1974-04-21,642.0
1974-04-22,645.0
1974-04-23,650.0
1974-04-24,732.0
1974-04-25,762.0
1974-04-26,774.0
1974-04-27,738.0
1974-04-28,663.0
1974-04-29,610.0
1974-04-30,578.0
1974-05-01,580.0
1974-05-02,620.0
1974-05-03,738.0
1974-05-04,834.0
1974-05-05,849.0
1974-05-06,870.0
1974-05-07,916.0
1974-05-08,982.0
1974-05-09,1030.0
1974-05-10,1080.0
1974-05-11,1070.0
1974-05-12,978.0
1974-05-13,933.0
1974-05-14,870.0
1974-05-15,774.0
1974-05-16,729.0
1974-05-17,693.0
1974-05-18,696.0
1974-05-19,678.0
1974-05-20,628.0
1974-05-21,572.0
1974-05-22,528.0
1974-05-23,490.0
1974-05-24,452.0
1974-05-25,430.0
1974-05-26,410.0
1974-05-27,406.0
1974-05-28,432.0
1974-05-29,472.0
1974-05-30,495.0
1974-05-31,505.0
1974-06-01,492.0
1974-06-02,462.0
1974-06-03,435.0
1974-06-04,415.0
1974-06-05,402.0
1974-06-06,406.0
1974-06-07,400.0
1974-06-08,386.0
1974-06-09,368.0
1974-06-10,340.0
1974-06-11,309.0
1974-06-12,288.0
1974-06-13,265.0
1974-06-14,252.0
1974-06-15,234.0
1974-06-16,216.0
1974-06-17,204.0
1974-06-18,191.0
1974-06-19,179.0
1974-06-20,164.0
1974-06-21,156.0
1974-06-22,149.0
1974-06-23,140.0
1974-06-24,135.0
1974-06-25,128.0
1974-06-26,120.0
1974-06-27,115.0
1974-06-28,110.0
1974-06-29,104.0
1974-06-30,98.0
1974-07-01,93.0
1974-07-02,89.0
1974-07-03,84.0
1974-07-04,80.0
1974-07-05,78.0
1974-07-06,74.0
1974-07-07,72.0
1974-07-08,71.0
1974-07-09,68.0
1974-07-10,69.0
1974-07-11,68.0
1974-07-12,68.0
1974-07-13,66.0
1974-07-14,61.0
1974-07-15,59.0
1974-07-16,57.0
1974-07-17,56.0
1974-07-18,54.0
1974-07-19,54.0
1974-07-20,53.0
1974-07-21,49.0
1974-07-22,49.0
1974-07-23,48.0
1974-07-24,47.0
1974-07-25,45.0
1974-07-26,44.0
1974-07-27,44.0
1974-07-28,42.0
1974-07-29,42.0
1974-07-30,40.0
1974-07-31,40.0
1974-08-01,41.0
1974-08-02,38.0
1974-08-03,37.0
1974-08-04,36.0
1974-08-05,36.0
1974-08-06,39.0
1974-08-07,36.0
1974-08-08,35.0
1974-08-09,35.0
1974-08-10,34.0
1974-08-11,33.0
1974-08-12,31.0
1974-08-13,31.0
1974-08-14,32.0
1974-08-15,31.0
1974-08-16,31.0
1974-08-17,31.0
1974-08-18,32.0
1974-08-19,34.0
1974-08-20,36.0
1974-08-21,35.0
1974-08-22,34.0
1974-08-23,35.0
1974-08-24,35.0
1974-08-25,35.0
1974-08-26,35.0
1974-08-27,36.0
1974-08-28,34.0
1974-08-29,33.0
1974-08-30,32.0
1974-08-31,34.0
1974-09-01,35.0
1974-09-02,34.0
1974-09-03,35.0
1974-09-04,36.0
1974-09-05,35.0
1974-09-06,35.0
1974-09-07,35.0
1974-09-08,34.0
1974-09-09,33.0
1974-09-10,30.0
1974-09-11,29.0
1974-09-12,28.0
1974-09-13,30.0
1974-09-14,33.0
1974-09-15,34.0
1974-09-16,35.0
1974-09-17,34.0
1974-09-18,34.0
1974-09-19,34.0
1974-09-20,33.0
1974-09-21,33.0
1974-09-22,34.0
1974-09-23,33.0
1974-09-24,33.0
1974-09-25,33.0
1974-09-26,33.0
1974-09-27,33.0
1974-09-28,32.0
1974-09-29,31.0
1974-09-30,32.0
1974-10-01,34.0
1974-10-02,34.0
1974-10-03,35.0
1974-10-04,36.0
1974-10-05,36.0
1974-10-06,36.0
1974-10-07,36.0
1974-10-08,37.0
1974-10-09,36.0
1974-10-10,34.0
1974-10-11,33.0
1974-10-12,34.0
1974-10-13,35.0
1974-10-14,35.0
1974-10-15,35.0
1974-10-16,34.0
1974-10-17,35.0
1974-10-18,35.0
1974-10-19,35.0
1974-10-20,35.0
1974-10-21,35.0
1974-10-22,35.0
1974-10-23,35.0
1974-10-24,35.0
1974-10-25,35.0
1974-10-26,36.0
1974-10-27,37.0
1974-10-28,44.0
1974-10-29,40.0
1974-10-30,39.0
1974-10-31,39.0
1974-11-01,39.0
1974-11-02,38.0
1974-11-03,38.0
1974-11-04,38.0
1974-11-05,38.0
1974-11-06,39.0
1974-11-07,42.0
1974-11-08,46.0
1974-11-09,44.0
1974-11-10,44.0
1974-11-11,48.0
1974-11-12,45.0
1974-11-13,45.0
1974-11-14,45.0
1974-11-15,46.0
1974-11-16,45.0
1974-11-17,46.0
1974-11-18,50.0
1974-11-19,48.0
1974-11-20,46.0
1974-11-21,48.0
1974-11-22,48.0
1974-11-23,47.0
1974-11-24,48.0
1974-11-25,50.0
1974-11-26,49.0
1974-11-27,48.0
1974-11-28,50.0
1974-11-29,45.0
1974-11-30,47.0
1974-12-01,49.0
1974-12-02,53.0
1974-12-03,54.0
1974-12-04,55.0
1974-12-05,53.0
1974-12-06,53.0
1974-12-07,55.0
1974-12-08,53.0
1974-12-09,50.0
1974-12-10,49.0
1974-12-11,56.0
1974-12-12,55.0
1974-12-13,50.0
1974-12-14,54.0
1974-12-15,57.0
1974-12-16,56.0
1974-12-17,63.0
1974-12-18,60.0
1974-12-19,57.0
1974-12-20,61.0
1974-12-21,68.0
1974-12-22,54.0
1974-12-23,38.0
1974-12-24,41.0
1974-12-25,47.0
1974-12-26,41.0
1974-12-27,41.0
1974-12-28,33.0
1974-12-29,29.0
1974-12-30,33.0
1974-12-31,32.0
1975-01-01,31.0
1975-01-02,33.0
1975-01-03,35.0
1975-01-04,34.0
1975-01-05,36.0
1975-01-06,37.0
1975-01-07,37.0
1975-01-08,38.0
1975-01-09,37.0
1975-01-10,37.0
1975-01-11,37.0
1975-01-12,36.0
1975-01-13,34.0
1975-01-14,35.0
1975-01-15,34.0
1975-01-16,35.0
1975-01-17,35.0
1975-01-18,34.0
1975-01-19,33.0
1975-01-20,33.0
1975-01-21,32.0
1975-01-22,30.0
1975-01-23,30.0
1975-01-24,31.0
1975-01-25,33.0
1975-01-26,34.0
1975-01-27,32.0
1975-01-28,26.0
1975-01-29,23.0
1975-01-30,23.0
1975-01-31,22.0
1975-02-01,25.0
1975-02-02,27.0
1975-02-03,25.0
1975-02-04,26.0
1975-02-05,27.0
1975-02-06,28.0
1975-02-07,28.0
1975-02-08,30.0
1975-02-09,36.0
1975-02-10,36.0
1975-02-11,34.0
1975-02-12,40.0
1975-02-13,41.0
1975-02-14,37.0
1975-02-15,33.0
1975-02-16,30.0
1975-02-17,29.0
1975-02-18,28.0
1975-02-19,30.0
1975-02-20,28.0
1975-02-21,27.0
1975-02-22,25.0
1975-02-23,28.0
1975-02-24,29.0
1975-02-25,31.0
1975-02-26,33.0
1975-02-27,37.0
1975-02-28,48.0
1975-03-01,57.0
1975-03-02,80.0
1975-03-03,87.0
1975-03-04,89.0
1975-03-05,114.0
1975-03-06,123.0
1975-03-07,131.0
1975-03-08,185.0
1975-03-09,200.0
1975-03-10,218.0
1975-03-11,244.0
1975-03-12,229.0
1975-03-13,221.0
1975-03-14,189.0
1975-03-15,175.0
1975-03-16,150.0
1975-03-17,133.0
1975-03-18,121.0
1975-03-19,148.0
1975-03-20,120.0
1975-03-21,104.0
1975-03-22,75.0
1975-03-23,110.0
1975-03-24,106.0
1975-03-25,121.0
1975-03-26,97.0
1975-03-27,95.0
1975-03-28,79.0
1975-03-29,86.0
1975-03-30,103.0
1975-03-31,112.0
1975-04-01,104.0
1975-04-02,110.0
1975-04-03,114.0
1975-04-04,110.0
1975-04-05,109.0
1975-04-06,108.0
1975-04-07,105.0
1975-04-08,106.0
1975-04-09,108.0
1975-04-10,120.0
1975-04-11,130.0
1975-04-12,156.0
1975-04-13,200.0
1975-04-14,249.0
1975-04-15,274.0
1975-04-16,271.0
1975-04-17,287.0
1975-04-18,285.0
1975-04-19,356.0
1975-04-20,472.0
1975-04-21,612.0
1975-04-22,753.0
1975-04-23,868.0
1975-04-24,1080.0
1975-04-25,1210.0
1975-04-26,962.0
1975-04-27,860.0
1975-04-28,896.0
1975-04-29,1000.0
1975-04-30,1180.0
1975-05-01,1380.0
1975-05-02,1500.0
1975-05-03,1490.0
1975-05-04,1450.0
1975-05-05,1180.0
1975-05-06,920.0
1975-05-07,885.0
1975-05-08,920.0
1975-05-09,888.0
1975-05-10,906.0
1975-05-11,857.0
1975-05-12,850.0
1975-05-13,860.0
1975-05-14,846.0
1975-05-15,854.0
1975-05-16,892.0
1975-05-17,944.0
1975-05-18,952.0
1975-05-19,930.0
1975-05-20,955.0
1975-05-21,986.0
1975-05-22,798.0
1975-05-23,681.0
1975-05-24,628.0
1975-05-25,645.0
1975-05-26,648.0
1975-05-27,615.0
1975-05-28,595.0
1975-05-29,578.0
1975-05-30,568.0
1975-05-31,558.0
1975-06-01,552.0
1975-06-02,558.0
1975-06-03,578.0
1975-06-04,575.0
1975-06-05,542.0
1975-06-06,492.0
1975-06-07,440.0
1975-06-08,400.0
1975-06-09,368.0
1975-06-10,346.0
1975-06-11,307.0
1975-06-12,278.0
1975-06-13,254.0
1975-06-14,235.0
1975-06-15,218.0
1975-06-16,203.0
1975-06-17,186.0
1975-06-18,170.0
1975-06-19,163.0
1975-06-20,160.0
1975-06-21,156.0
1975-06-22,150.0
1975-06-23,148.0
1975-06-24,156.0
1975-06-25,150.0
1975-06-26,144.0
1975-06-27,139.0
1975-06-28,134.0
1975-06-29,130.0
1975-06-30,122.0
1975-07-01,116.0
1975-07-02,106.0
1975-07-03,101.0
1975-07-04,95.0
1975-07-05,91.0
1975-07-06,88.0
1975-07-07,82.0
1975-07-08,77.0
1975-07-09,73.0
1975-07-10,70.0
1975-07-11,64.0
1975-07-12,66.0
1975-07-13,80.0
1975-07-14,78.0
1975-07-15,87.0
1975-07-16,87.0
1975-07-17,90.0
1975-07-18,86.0
1975-07-19,82.0
1975-07-20,78.0
1975-07-21,67.0
1975-07-22,63.0
1975-07-23,62.0
1975-07-24,62.0
1975-07-25,62.0
1975-07-26,60.0
1975-07-27,54.0
1975-07-28,51.0
1975-07-29,55.0
1975-07-30,54.0
1975-07-31,49.0
1975-08-01,47.0
1975-08-02,44.0
1975-08-03,44.0
1975-08-04,41.0
1975-08-05,39.0
1975-08-06,40.0
1975-08-07,42.0
1975-08-08,41.0
1975-08-09,38.0
1975-08-10,38.0
1975-08-11,37.0
1975-08-12,36.0
1975-08-13,34.0
1975-08-14,32.0
1975-08-15,32.0
1975-08-16,32.0
1975-08-17,37.0
1975-08-18,46.0
1975-08-19,41.0
1975-08-20,38.0
1975-08-21,38.0
1975-08-22,37.0
1975-08-23,37.0
1975-08-24,36.0
1975-08-25,36.0
1975-08-26,34.0
1975-08-27,34.0
1975-08-28,35.0
1975-08-29,34.0
1975-08-30,30.0
1975-08-31,31.0
1975-09-01,31.0
1975-09-02,30.0
1975-09-03,30.0
1975-09-04,29.0
1975-09-05,29.0
1975-09-06,29.0
1975-09-07,28.0
1975-09-08,29.0
1975-09-09,30.0
1975-09-10,31.0
1975-09-11,28.0
1975-09-12,28.0
1975-09-13,30.0
1975-09-14,36.0
1975-09-15,34.0
1975-09-16,36.0
1975-09-17,31.0
1975-09-18,26.0
1975-09-19,24.0
1975-09-20,22.0
1975-09-21,23.0
1975-09-22,26.0
1975-09-23,26.0
1975-09-24,24.0
1975-09-25,22.0
1975-09-26,23.0
1975-09-27,23.0
1975-09-28,22.0
1975-09-29,22.0
1975-09-30,22.0
1975-10-01,22.0
1975-10-02,21.0
1975-10-03,21.0
1975-10-04,19.0
1975-10-05,20.0
1975-10-06,27.0
1975-10-07,32.0
1975-10-08,25.0
1975-10-09,24.0
1975-10-10,25.0
1975-10-11,25.0
1975-10-12,24.0
1975-10-13,23.0
1975-10-14,23.0
1975-10-15,23.0
1975-10-16,27.0
1975-10-17,30.0
1975-10-18,32.0
1975-10-19,32.0
1975-10-20,31.0
1975-10-21,32.0
1975-10-22,35.0
1975-10-23,34.0
1975-10-24,34.0
1975-10-25,41.0
1975-10-26,58.0
1975-10-27,50.0
1975-10-28,50.0
1975-10-29,49.0
1975-10-30,56.0
1975-10-31,52.0
1975-11-01,51.0
1975-11-02,51.0
1975-11-03,51.0
1975-11-04,49.0
1975-11-05,48.0
1975-11-06,49.0
1975-11-07,56.0
1975-11-08,54.0
1975-11-09,54.0
1975-11-10,57.0
1975-11-11,52.0
1975-11-12,47.0
1975-11-13,50.0
1975-11-14,54.0
1975-11-15,58.0
1975-11-16,57.0
1975-11-17,51.0
1975-11-18,37.0
1975-11-19,41.0
1975-11-20,60.0
1975-11-21,50.0
1975-11-22,41.0
1975-11-23,47.0
1975-11-24,44.0
1975-11-25,47.0
1975-11-26,49.0
1975-11-27,52.0
1975-11-28,44.0
1975-11-29,32.0
1975-11-30,55.0
1975-12-01,56.0
1975-12-02,49.0
1975-12-03,55.0
1975-12-04,63.0
1975-12-05,97.0
1975-12-06,110.0
1975-12-07,114.0
1975-12-08,110.0
1975-12-09,105.0
1975-12-10,103.0
1975-12-11,99.0
1975-12-12,97.0
1975-12-13,74.0
1975-12-14,44.0
1975-12-15,72.0
1975-12-16,78.0
1975-12-17,63.0
1975-12-18,50.0
1975-12-19,50.0
1975-12-20,52.0
1975-12-21,46.0
1975-12-22,58.0
1975-12-23,51.0
1975-12-24,55.0
1975-12-25,56.0
1975-12-26,69.0
1975-12-27,78.0
1975-12-28,74.0
1975-12-29,95.0
1975-12-30,91.0
1975-12-31,60.0
1976-01-01,50.0
1976-01-02,50.0
1976-01-03,50.0
1976-01-04,56.0
1976-01-05,55.0
1976-01-06,49.0
1976-01-07,44.0
1976-01-08,48.0
1976-01-09,48.0
1976-01-10,38.0
1976-01-11,44.0
1976-01-12,48.0
1976-01-13,42.0
1976-01-14,41.0
1976-01-15,42.0
1976-01-16,42.0
1976-01-17,42.0
1976-01-18,44.0
1976-01-19,39.0
1976-01-20,39.0
1976-01-21,40.0
1976-01-22,37.0
1976-01-23,43.0
1976-01-24,29.0
1976-01-25,31.0
1976-01-26,35.0
1976-01-27,37.0
1976-01-28,36.0
1976-01-29,35.0
1976-01-30,37.0
1976-01-31,36.0
1976-02-01,37.0
1976-02-02,37.0
1976-02-03,37.0
1976-02-04,25.0
1976-02-05,24.0
1976-02-06,21.0
1976-02-07,30.0
1976-02-08,30.0
1976-02-09,29.0
1976-02-10,27.0
1976-02-11,27.0
1976-02-12,41.0
1976-02-13,43.0
1976-02-14,43.0
1976-02-15,37.0
1976-02-16,42.0
1976-02-17,50.0
1976-02-18,52.0
1976-02-19,46.0
1976-02-20,40.0
1976-02-21,40.0
1976-02-22,46.0
1976-02-23,46.0
1976-02-24,47.0
1976-02-25,49.0
1976-02-26,101.0
1976-02-27,78.0
1976-02-28,91.0
1976-02-29,83.0
1976-03-01,72.0
1976-03-02,72.0
1976-03-03,61.0
1976-03-04,79.0
1976-03-05,54.0
1976-03-06,54.0
1976-03-07,54.0
1976-03-08,57.0
1976-03-09,63.0
1976-03-10,82.0
1976-03-11,70.0
1976-03-12,64.0
1976-03-13,66.0
1976-03-14,69.0
1976-03-15,83.0
1976-03-16,117.0
1976-03-17,236.0
1976-03-18,541.0
1976-03-19,474.0
1976-03-20,356.0
1976-03-21,352.0
1976-03-22,438.0
1976-03-23,374.0
1976-03-24,385.0
1976-03-25,324.0
1976-03-26,344.0
1976-03-27,311.0
1976-03-28,276.0
1976-03-29,256.0
1976-03-30,273.0
1976-03-31,358.0
1976-04-01,350.0
1976-04-02,318.0
1976-04-03,322.0
1976-04-04,372.0
1976-04-05,455.0
1976-04-06,495.0
1976-04-07,470.0
1976-04-08,478.0
1976-04-09,460.0
1976-04-10,415.0
1976-04-11,368.0
1976-04-12,340.0
1976-04-13,324.0
1976-04-14,309.0
1976-04-15,296.0
1976-04-16,283.0
1976-04-17,271.0
1976-04-18,269.0
1976-04-19,261.0
1976-04-20,259.0
1976-04-21,251.0
1976-04-22,251.0
1976-04-23,256.0
1976-04-24,264.0
1976-04-25,276.0
1976-04-26,299.0
1976-04-27,320.0
1976-04-28,312.0
1976-04-29,297.0
1976-04-30,287.0
1976-05-01,281.0
1976-05-02,281.0
1976-05-03,310.0
1976-05-04,346.0
1976-05-05,360.0
1976-05-06,366.0
1976-05-07,378.0
1976-05-08,362.0
1976-05-09,362.0
1976-05-10,362.0
1976-05-11,346.0
1976-05-12,348.0
1976-05-13,338.0
1976-05-14,318.0
1976-05-15,314.0
1976-05-16,305.0
1976-05-17,280.0
1976-05-18,264.0
1976-05-19,249.0
1976-05-20,232.0
1976-05-21,226.0
1976-05-22,221.0
1976-05-23,210.0
1976-05-24,197.0
1976-05-25,186.0
1976-05-26,175.0
1976-05-27,174.0
1976-05-28,169.0
1976-05-29,164.0
1976-05-30,164.0
1976-05-31,169.0
1976-06-01,163.0
1976-06-02,153.0
1976-06-03,144.0
1976-06-04,137.0
1976-06-05,132.0
1976-06-06,126.0
1976-06-07,120.0
1976-06-08,113.0
1976-06-09,109.0
1976-06-10,109.0
1976-06-11,100.0
1976-06-12,66.0
1976-06-13,52.0
1976-06-14,49.0
1976-06-15,52.0
1976-06-16,58.0
1976-06-17,62.0
1976-06-18,63.0
1976-06-19,63.0
1976-06-20,61.0
1976-06-21,67.0
1976-06-22,66.0
1976-06-23,62.0
1976-06-24,58.0
1976-06-25,56.0
1976-06-26,52.0
1976-06-27,51.0
1976-06-28,42.0
1976-06-29,42.0
1976-06-30,43.0
1976-07-01,41.0
1976-07-02,41.0
1976-07-03,38.0
1976-07-04,35.0
1976-07-05,34.0
1976-07-06,32.0
1976-07-07,30.0
1976-07-08,30.0
1976-07-09,27.0
1976-07-10,26.0
1976-07-11,26.0
1976-07-12,29.0
1976-07-13,26.0
1976-07-14,25.0
1976-07-15,24.0
1976-07-16,41.0
1976-07-17,48.0
1976-07-18,46.0
1976-07-19,40.0
1976-07-20,35.0
1976-07-21,30.0
1976-07-22,29.0
1976-07-23,27.0
1976-07-24,30.0
1976-07-25,28.0
1976-07-26,25.0
1976-07-27,22.0
1976-07-28,22.0
1976-07-29,19.0
1976-07-30,17.0
1976-07-31,17.0
1976-08-01,27.0
1976-08-02,34.0
1976-08-03,25.0
1976-08-04,31.0
1976-08-05,32.0
1976-08-06,29.0
1976-08-07,27.0
1976-08-08,25.0
1976-08-09,25.0
1976-08-10,23.0
1976-08-11,22.0
1976-08-12,22.0
1976-08-13,23.0
1976-08-14,36.0
1976-08-15,42.0
1976-08-16,39.0
1976-08-17,36.0
1976-08-18,30.0
1976-08-19,36.0
1976-08-20,39.0
1976-08-21,37.0
1976-08-22,40.0
1976-08-23,41.0
1976-08-24,35.0
1976-08-25,32.0
1976-08-26,31.0
1976-08-27,29.0
1976-08-28,27.0
1976-08-29,28.0
1976-08-30,25.0
1976-08-31,23.0
1976-09-01,21.0
1976-09-02,20.0
1976-09-03,19.0
1976-09-04,19.0
1976-09-05,19.0
1976-09-06,19.0
1976-09-07,19.0
1976-09-08,18.0
1976-09-09,18.0
1976-09-10,18.0
1976-09-11,18.0
1976-09-12,19.0
1976-09-13,19.0
1976-09-14,21.0
1976-09-15,21.0
1976-09-16,29.0
1976-09-17,25.0
1976-09-18,23.0
1976-09-19,29.0
1976-09-20,29.0
1976-09-21,28.0
1976-09-22,26.0
1976-09-23,26.0
1976-09-24,26.0
1976-09-25,25.0
1976-09-26,24.0
1976-09-27,23.0
1976-09-28,23.0
1976-09-29,24.0
1976-09-30,23.0
1976-10-01,23.0
1976-10-02,31.0
1976-10-03,31.0
1976-10-04,30.0
1976-10-05,29.0
1976-10-06,30.0
1976-10-07,31.0
1976-10-08,30.0
1976-10-09,29.0
1976-10-10,30.0
1976-10-11,28.0
1976-10-12,29.0
1976-10-13,28.0
1976-10-14,27.0
1976-10-15,27.0
1976-10-16,28.0
1976-10-17,27.0
1976-10-18,27.0
1976-10-19,26.0
1976-10-20,26.0
1976-10-21,25.0
1976-10-22,26.0
1976-10-23,26.0
1976-10-24,25.0
1976-10-25,26.0
1976-10-26,26.0
1976-10-27,27.0
1976-10-28,26.0
1976-10-29,26.0
1976-10-30,30.0
1976-10-31,31.0
1976-11-01,31.0
1976-11-02,32.0
1976-11-03,31.0
1976-11-04,31.0
1976-11-05,31.0
1976-11-06,32.0
1976-11-07,32.0
1976-11-08,32.0
1976-11-09,33.0
1976-11-10,33.0
1976-11-11,33.0
1976-11-12,33.0
1976-11-13,33.0
1976-11-14,39.0
1976-11-15,39.0
1976-11-16,38.0
1976-11-17,37.0
1976-11-18,37.0
1976-11-19,38.0
1976-11-20,38.0
1976-11-21,39.0
1976-11-22,39.0
1976-11-23,39.0
1976-11-24,37.0
1976-11-25,37.0
1976-11-26,34.0
1976-11-27,25.0
1976-11-28,29.0
1976-11-29,35.0
1976-11-30,31.0
1976-12-01,28.0
1976-12-02,27.0
1976-12-03,26.0
1976-12-04,30.0
1976-12-05,25.0
1976-12-06,26.0
1976-12-07,26.0
1976-12-08,28.0
1976-12-09,30.0
1976-12-10,25.0
1976-12-11,26.0
1976-12-12,28.0
1976-12-13,31.0
1976-12-14,30.0
1976-12-15,32.0
1976-12-16,31.0
1976-12-17,29.0
1976-12-18,26.0
1976-12-19,24.0
1976-12-20,24.0
1976-12-21,24.0
1976-12-22,27.0
1976-12-23,29.0
1976-12-24,24.0
1976-12-25,24.0
1976-12-26,27.0
1976-12-27,26.0
1976-12-28,23.0
1976-12-29,22.0
1976-12-30,24.0
1976-12-31,26.0
1977-01-01,23.0
1977-01-02,28.0
1977-01-03,28.0
1977-01-04,28.0
1977-01-05,26.0
1977-01-06,23.0
1977-01-07,21.0
1977-01-08,20.0
1977-01-09,20.0
1977-01-10,20.0
1977-01-11,20.0
1977-01-12,20.0
1977-01-13,20.0
1977-01-14,20.0
1977-01-15,20.0
1977-01-16,20.0
1977-01-17,20.0
1977-01-18,20.0
1977-01-19,20.0
1977-01-20,21.0
1977-01-21,21.0
1977-01-22,22.0
1977-01-23,24.0
1977-01-24,23.0
1977-01-25,22.0
1977-01-26,22.0
1977-01-27,22.0
1977-01-28,22.0
1977-01-29,22.0
1977-01-30,22.0
1977-01-31,24.0
1977-02-01,23.0
1977-02-02,22.0
1977-02-03,22.0
1977-02-04,22.0
1977-02-05,23.0
1977-02-06,26.0
1977-02-07,27.0
1977-02-08,31.0
1977-02-09,30.0
1977-02-10,30.0
1977-02-11,31.0
1977-02-12,34.0
1977-02-13,34.0
1977-02-14,34.0
1977-02-15,34.0
1977-02-16,34.0
1977-02-17,36.0
1977-02-18,36.0
1977-02-19,36.0
1977-02-20,39.0
1977-02-21,43.0
1977-02-22,40.0
1977-02-23,37.0
1977-02-24,37.0
1977-02-25,32.0
1977-02-26,31.0
1977-02-27,30.0
1977-02-28,32.0
1977-03-01,30.0
1977-03-02,30.0
1977-03-03,28.0
1977-03-04,28.0
1977-03-05,29.0
1977-03-06,30.0
1977-03-07,31.0
1977-03-08,32.0
1977-03-09,35.0
1977-03-10,31.0
1977-03-11,30.0
1977-03-12,31.0
1977-03-13,28.0
1977-03-14,27.0
1977-03-15,30.0
1977-03-16,30.0
1977-03-17,27.0
1977-03-18,27.0
1977-03-19,27.0
1977-03-20,28.0
1977-03-21,30.0
1977-03-22,32.0
1977-03-23,35.0
1977-03-24,34.0
1977-03-25,29.0
1977-03-26,29.0
1977-03-27,30.0
1977-03-28,27.0
1977-03-29,29.0
1977-03-30,30.0
1977-03-31,30.0
1977-04-01,31.0
1977-04-02,31.0
1977-04-03,34.0
1977-04-04,35.0
1977-04-05,34.0
1977-04-06,31.0
1977-04-07,29.0
1977-04-08,29.0
1977-04-09,30.0
1977-04-10,26.0
1977-04-11,26.0
1977-04-12,26.0
1977-04-13,27.0
1977-04-14,26.0
1977-04-15,24.0
1977-04-16,23.0
1977-04-17,22.0
1977-04-18,23.0
1977-04-19,23.0
1977-04-20,21.0
1977-04-21,20.0
1977-04-22,21.0
1977-04-23,18.0
1977-04-24,20.0
1977-04-25,19.0
1977-04-26,20.0
1977-04-27,18.0
1977-04-28,17.0
1977-04-29,17.0
1977-04-30,17.0
1977-05-01,20.0
1977-05-02,23.0
1977-05-03,23.0
1977-05-04,21.0
1977-05-05,21.0
1977-05-06,22.0
1977-05-07,23.0
1977-05-08,23.0
1977-05-09,27.0
1977-05-10,63.0
1977-05-11,74.0
1977-05-12,62.0
1977-05-13,63.0
1977-05-14,74.0
1977-05-15,47.0
1977-05-16,41.0
1977-05-17,38.0
1977-05-18,39.0
1977-05-19,39.0
1977-05-20,38.0
1977-05-21,36.0
1977-05-22,34.0
1977-05-23,47.0
1977-05-24,39.0
1977-05-25,32.0
1977-05-26,34.0
1977-05-27,36.0
1977-05-28,29.0
1977-05-29,28.0
1977-05-30,28.0
1977-05-31,28.0
1977-06-01,25.0
1977-06-02,22.0
1977-06-03,21.0
1977-06-04,20.0
1977-06-05,19.0
1977-06-06,19.0
1977-06-07,20.0
1977-06-08,26.0
1977-06-09,24.0
1977-06-10,24.0
1977-06-11,35.0
1977-06-12,29.0
1977-06-13,26.0
1977-06-14,28.0
1977-06-15,35.0
1977-06-16,41.0
1977-06-17,36.0
1977-06-18,35.0
1977-06-19,31.0
1977-06-20,31.0
1977-06-21,27.0
1977-06-22,27.0
1977-06-23,24.0
1977-06-24,23.0
1977-06-25,20.0
1977-06-26,19.0
1977-06-27,17.0
1977-06-28,15.0
1977-06-29,13.0
1977-06-30,13.0
1977-07-01,18.0
1977-07-02,23.0
1977-07-03,21.0
1977-07-04,18.0
1977-07-05,19.0
1977-07-06,18.0
1977-07-07,16.0
1977-07-08,15.0
1977-07-09,16.0
1977-07-10,15.0
1977-07-11,15.0
1977-07-12,15.0
1977-07-13,14.0
1977-07-14,14.0
1977-07-15,14.0
1977-07-16,14.0
1977-07-17,13.0
1977-07-18,13.0
1977-07-19,12.0
1977-07-20,14.0
1977-07-21,13.0
1977-07-22,16.0
1977-07-23,15.0
1977-07-24,15.0
1977-07-25,16.0
1977-07-26,20.0
1977-07-27,15.0
1977-07-28,15.0
1977-07-29,15.0
1977-07-30,14.0
1977-07-31,13.0
1977-08-01,14.0
1977-08-02,16.0
1977-08-03,18.0
1977-08-04,13.0
1977-08-05,11.0
1977-08-06,15.0
1977-08-07,17.0
1977-08-08,17.0
1977-08-09,14.0
1977-08-10,13.0
1977-08-11,11.0
1977-08-12,10.0
1977-08-13,13.0
1977-08-14,16.0
1977-08-15,16.0
1977-08-16,16.0
1977-08-17,15.0
1977-08-18,14.0
1977-08-19,18.0
1977-08-20,30.0
1977-08-21,20.0
1977-08-22,21.0
1977-08-23,17.0
1977-08-24,21.0
1977-08-25,24.0
1977-08-26,24.0
1977-08-27,29.0
1977-08-28,22.0
1977-08-29,23.0
1977-08-30,23.0
1977-08-31,24.0
1977-09-01,20.0
1977-09-02,20.0
1977-09-03,23.0
1977-09-04,21.0
1977-09-05,22.0
1977-09-06,21.0
1977-09-07,20.0
1977-09-08,20.0
1977-09-09,19.0
1977-09-10,21.0
1977-09-11,22.0
1977-09-12,22.0
1977-09-13,19.0
1977-09-14,17.0
1977-09-15,18.0
1977-09-16,32.0
1977-09-17,28.0
1977-09-18,26.0
1977-09-19,23.0
1977-09-20,28.0
1977-09-21,24.0
1977-09-22,22.0
1977-09-23,26.0
1977-09-24,28.0
1977-09-25,27.0
1977-09-26,23.0
1977-09-27,22.0
1977-09-28,28.0
1977-09-29,55.0
1977-09-30,36.0
1977-10-01,24.0
1977-10-02,23.0
1977-10-03,25.0
1977-10-04,21.0
1977-10-05,22.0
1977-10-06,25.0
1977-10-07,22.0
1977-10-08,21.0
1977-10-09,23.0